Location: Le Hiès Ruisseau
(43.3000°N, 0.4500°W)
Time: 13:13:54
(UTC+00:00)

Cosmos 1655 Rocket - Pass Details

Date: 28 January 2023
Orbit: 970 x 1006 km, 83.0° (Epoch: 19 March)

Event Time Altitude Azimuth Distance (km) Brightness Sun altitude
Rises 18:02:20 0° 355° (N) 3,705 6.9 -10.1°
Reaches altitude 10° 18:04:55 10° 359° (N) 2,747 6.2 -10.6°
Maximum altitude 18:11:07 59° 79° (E) 1,125 4.0 -11.7°
Drops below altitude 10° 18:17:14 10° 158° (SSE) 2,709 6.2 -12.8°
Sets 18:19:46 0° 162° (SSE) 3,650 7.0 -13.2°
